Temperature
13 13 13 13 13 13 13 13 13 13 13 13 12 12 12 12 12 12 12 12 12 12 12 12 12 12 12 12 12 12 12 12 12 12 12 11 11 11
13 13 13 13 13 13 13 13 13 13 12 12 12 12 12 12 12 12 12 12 12 12 12 12 12 12 12 12 12 12 12 12 12 12 12 11 11 11
13 13 13 13 13 13 13 13 13 13 12 12 12 12 12 12 11 11 11 11 11 11 11 11 11 11 11 11 11 12 12 12 12 11 11 11 11 11
12 12 12 12 12 12 12 12 12 12 12 12 12 12 11 11 11 11 11 11 11 11 11 11 11 11 11 11 11 11 11 11 11 11 11 11 11 11
12 12 12 12 12 12 12 12 12 12 12 12 11 11 11 11 11 11 11 11 11 11 11 11 11 11 11 11 11 11 11 11 11 11 11 11 11 10
12 12 12 12 12 12 12 12 11 11 11 11 11 11 11 11 11 11 10 10 10 10 10 11 11 11 11 11 11 11 11 11 11 11 11 11 10 10
12 12 12 12 12 12 12 11 11 11 11 11 11 11 11 10 10 10 10 10 10 10 10 10 10 10 10 10 10 10 10 10 10 10 10 10 10 10
12 12 12 12 12 12 12 11 11 11 11 11 11 10 10 10 10 10 10 10 10 10 10 10 10 10 10 10 10 10 10 10 10 10 10 10 10 10
12 12 12 12 12 11 11 11 11 11 11 11 11 11 10 10 10 10 10 10 10 10 10 10 10 10 10 10 10 10 10 10 10 10 10 10 10 9
11 11 11 11 11 11 11 11 11 11 11 11 11 10 10 10 10 10 10 9 9 9 9 9 9 10 10 10 10 10 10 10 10 10 10 10 9 9
11 11 11 11 11 11 11 11 11 11 10 10 10 10 10 10 10 10 9 9 9 9 9 9 9 9 9 9 9 9 9 9 9 9 9 9 9 9
10 11 11 11 11 11 10 10 10 10 10 10 10 10 10 10 10 9 9 9 9 9 9 9 9 8 8 9 9 9 9 9 9 9 9 9 9 9
10 10 10 10 10 10 10 10 10 10 10 10 10 10 9 9 9 9 9 9 9 9 9 8 8 8 8 8 8 9 9 9 9 9 9 9 9 9
10 10 10 10 10 10 10 10 9 9 9 9 9 9 9 9 9 9 9 9 9 8 8 8 8 8 8 8 8 8 8 8 8 8 8 9 8 8
9 9 9 9 9 9 9 9 9 9 9 9 9 8 8 8 8 8 8 8 8 8 8 8 8 7 7 7 7 8 8 8 8 8 8 8 8 8
9 9 9 9 9 9 9 9 8 8 8 8 8 8 8 8 8 8 8 8 8 8 7 7 7 7 7 7 7 7 7 7 8 8 8 8 8 8
8 8 8 8 8 8 8 8 8 8 7 7 7 7 7 7 7 7 7 7 7 7 7 7 7 7 7 7 7 7 7 7 7 7 7 7 7 7
8 7 7 7 7 7 7 7 7 7 7 6 6 7 7 6 6 6 6 6 6 6 6 7 7 6 6 6 6 6 6 6 7 6 6 7 7 7
7 7 7 7 6 6 7 7 6 6 6 6 6 6 6 6 6 6 6 6 6 6 6 6 6 6 6 6 6 6 6 6 6 6 6 6 6 6
6 6 6 6 6 6 6 6 6 6 6 5 5 5 5 5 5 5 5 5 5 5 5 5 5 5 5 5 5 5 5 5 5 5 5 6 6 6
6 6 6 6 5 5 5 5 5 5 5 5 5 5 5 5 5 5 5 5 5 5 5 5 5 5 5 5 5 5 5 5 5 5 5 5 5 5
5 5 5 5 5 5 5 5 5 5 4 4 4 4 4 4 4 4 4 4 4 4 4 4 5 5 4 4 4 4 4 4 4 4 4 4 4 4
5 5 5 4 4 4 4 4 4 4 4 4 4 4 4 3 3 4 4 4 4 4 4 4 4 4 4 4 4 4 4 4 4 4 4 4 4 4
Wind_Speed
2 2 1 1 0 0 1 2 2 1 1 1 0 2 4 5 6 5 4 3 2 2 1 1 2 2 2 2 3 2 2 2 2 2 3 3 3 4
1 1 1 1 1 0 0 0 1 2 1 1 1 2 3 3 4 4 4 4 3 3 2 1 0 0 1 2 2 2 1 2 1 1 2 2 3 3
2 2 2 1 1 1 0 0 0 1 1 1 0 1 2 2 2 3 4 4 4 4 3 2 2 1 1 1 2 2 0 0 0 0 1 1 1 2
3 2 3 2 2 2 2 1 1 1 2 1 1 0 1 2 2 2 2 3 3 4 5 4 4 3 2 2 2 2 1 1 1 1 1 1 1 1
3 3 3 3 2 2 2 2 1 1 1 2 1 1 1 1 1 1 1 1 2 4 5 5 6 5 5 4 3 3 3 3 2 2 3 3 3 2
3 3 3 3 3 3 2 2 1 1 1 1 2 1 1 1 1 1 1 1 2 1 2 4 5 6 6 6 4 3 3 3 4 4 4 3 3 3
3 3 3 3 3 3 2 1 1 2 2 2 2 1 1 1 1 1 1 2 2 1 1 2 2 3 4 5 5 4 4 4 4 4 5 5 4 4
3 3 3 4 4 4 3 3 3 3 3 2 2 3 3 2 2 2 1 1 2 1 1 2 2 2 3 5 6 5 5 5 5 5 5 5 4 4
2 2 2 2 3 3 4 4 4 5 5 4 3 4 3 3 3 2 2 2 3 2 1 3 2 2 3 5 6 6 6 6 6 6 6 6 6 6
3 3 2 2 2 2 2 3 3 3 4 3 3 4 4 3 4 4 4 3 2 1 2 2 2 2 3 4 7 7 7 7 7 7 7 6 7 7
2 1 1 2 2 2 2 2 1 1 2 2 3 3 3 4 3 1 1 1 2 2 1 1 2 2 2 2 4 6 7 7 8 8 7 7 7 7
1 1 1 1 1 3 2 2 2 1 1 1 1 1 2 3 4 4 3 2 1 2 2 1 1 0 1 2 2 3 5 6 7 8 7 7 6 4
1 1 0 1 2 2 2 2 2 1 2 1 1 1 1 1 1 2 2 3 2 2 2 1 1 1 1 2 2 2 3 3 4 5 7 7 6 5
1 1 1 1 1 1 2 2 1 0 0 1 0 1 1 1 1 1 2 2 2 2 2 2 2 2 1 2 2 2 2 3 3 2 4 5 6 7
0 1 1 2 2 2 3 2 1 1 1 1 1 1 1 1 0 0 1 0 1 1 1 1 1 1 2 2 2 2 2 2 2 1 2 2 3 3
1 1 1 2 2 2 2 1 1 2 2 2 1 1 1 0 0 0 0 0 0 1 1 2 1 1 2 2 2 3 2 2 2 2 2 2 3 4
1 1 1 1 1 1 1 1 1 1 1 1 1 1 0 0 1 1 1 1 1 1 1 2 1 1 1 1 2 2 2 2 2 2 1 1 1 1
2 2 2 2 2 2 2 2 1 1 1 1 1 1 1 1 1 1 1 1 1 1 1 1 1 2 2 2 2 1 1 1 1 1 1 1 2 1
2 2 2 2 2 2 2 2 2 2 1 1 1 1 2 1 1 1 1 1 1 2 2 1 0 0 1 3 3 2 1 1 1 1 1 1 2 3
2 2 3 2 2 3 2 2 1 1 1 1 1 1 1 1 2 2 2 2 2 1 1 1 1 2 3 3 2 2 2 1 1 1 2 1 1 2
3 3 3 2 2 3 3 2 2 2 2 1 1 1 1 1 1 2 2 2 1 1 2 2 3 3 2 0 0 2 2 2 1 1 1 1 2 1
3 3 3 3 2 2 2 2 2 2 2 2 2 2 1 1 2 2 2 2 2 2 2 2 2 1 1 2 3 3 2 2 2 2 2 0 1 2
2 2 2 2 2 2 2 2 3 3 3 3 2 2 2 1 2 2 2 2 2 2 1 1 1 1 1 2 2 2 2 2 1 1 2 2 1 1
Wind_Direction
232 217 222 261 309 292 140 148 158 198 271 205 125 146 140 137 152 157 157 159 138 131 114 66 22 7 8 13 12 14 23 34 32 40 35 27 27 25
235 204 214 226 221 249 359 94 149 157 211 245 210 168 142 145 168 165 165 165 177 189 191 192 280 328 7 11 11 14 37 50 40 40 27 19 19 20
234 208 216 207 176 191 160 93 108 119 172 277 316 138 122 129 128 174 172 166 191 203 202 203 214 234 255 302 336 343 27 50 358 357 359 11 19 19
222 211 216 199 194 191 172 195 207 193 174 204 256 176 170 159 157 183 195 200 199 203 208 220 227 233 245 257 269 273 241 245 246 253 266 257 290 334
206 205 215 190 204 205 189 194 209 206 168 176 225 232 220 183 171 219 239 223 235 214 212 224 231 235 240 247 251 254 240 239 244 250 260 242 245 250
199 202 213 196 200 197 197 194 193 182 179 179 190 212 224 216 158 207 270 275 274 226 217 225 232 236 236 237 239 242 238 236 237 244 246 236 237 238
211 208 204 195 182 174 173 179 180 194 188 182 190 208 224 183 207 223 237 258 268 227 214 229 210 221 231 228 232 237 235 237 241 242 238 233 233 235
222 217 202 182 184 186 192 195 191 196 197 193 201 203 210 205 205 221 222 229 268 251 184 249 205 229 222 210 215 224 238 239 237 234 229 227 229 236
241 224 222 183 170 191 203 204 213 218 211 201 206 211 205 202 196 216 230 222 240 235 183 259 240 237 238 229 215 216 229 239 239 233 230 232 232 232
236 225 205 190 190 171 184 194 210 213 213 210 213 215 204 196 197 210 223 232 251 239 143 238 256 254 257 226 218 221 231 240 240 235 233 236 237 233
244 221 180 172 164 139 156 186 201 260 258 221 221 224 217 212 203 189 218 195 260 255 206 200 257 273 253 239 230 233 235 241 240 239 238 240 240 235
231 146 115 138 135 143 166 180 210 249 297 311 292 273 241 222 214 194 194 207 223 233 225 195 248 291 290 261 227 231 243 254 246 241 239 239 238 234
214 185 142 95 106 142 156 181 219 249 243 249 241 239 239 206 207 206 196 195 206 232 223 177 226 235 225 270 273 236 219 245 241 242 240 239 237 225
237 196 182 136 141 165 189 222 215 119 225 213 205 245 237 234 240 235 248 237 211 225 229 187 201 219 234 265 271 267 253 226 212 237 239 237 238 240
285 97 131 156 147 191 211 219 209 161 161 192 217 239 238 245 234 283 322 320 314 242 233 290 241 226 217 238 254 259 271 262 219 231 225 219 224 229
237 198 153 192 205 213 217 217 194 180 179 207 217 234 250 11 6 310 262 240 272 292 284 281 275 227 252 257 246 263 250 240 243 233 228 237 229 222
184 174 177 170 195 213 195 196 181 174 194 217 201 208 226 204 237 230 213 213 226 248 298 321 312 262 231 266 269 265 267 274 251 226 221 256 270 221
162 189 201 196 196 204 197 197 196 193 213 211 211 211 217 221 239 257 231 211 220 247 265 281 342 355 349 359 358 289 322 309 309 291 227 230 281 287
180 203 204 203 205 207 203 197 205 205 193 210 233 229 222 224 219 231 235 234 239 243 249 244 209 160 285 290 312 335 276 287 319 321 288 256 261 273
193 208 213 213 210 204 202 197 195 194 195 211 225 235 231 234 229 228 229 230 237 249 261 260 216 213 226 244 262 298 290 256 252 259 284 302 290 276
203 209 212 215 219 209 204 196 190 196 207 207 211 224 237 247 249 239 232 237 247 251 240 242 241 233 241 157 318 301 310 301 271 245 251 289 304 307
217 209 206 212 215 207 201 196 202 207 208 214 220 220 230 241 247 251 241 229 240 254 256 250 232 209 199 231 252 263 283 312 335 18 32 298 215 236
226 215 207 206 209 207 207 211 210 215 208 206 209 215 220 240 256 250 247 243 249 265 272 273 260 231 228 233 247 264 276 275 278 356 327 323 289 239
Height
1530 1531 1531 1531 1532 1532 1533 1534 1534 1534 1534 1535 1535 1535 1535 1535 1534 1534 1534 1534 1533 1533 1532 1532 1531 1531 1530 1530 1529 1529 1529 1529 1529 1529 1529 1529 1529 1528
1528 1529 1529 1529 1530 1530 1531 1531 1532 1532 1532 1533 1533 1534 1533 1533 1533 1533 1532 1532 1532 1531 1531 1530 1530 1529 1529 1528 1528 1527 1527 1527 1527 1527 1527 1527 1527 1527
1526 1526 1526 1527 1527 1528 1528 1529 1530 1530 1530 1531 1532 1532 1532 1532 1532 1531 1531 1531 1530 1530 1529 1529 1528 1528 1527 1527 1526 1526 1526 1526 1526 1526 1526 1526 1526 1525
1523 1523 1524 1524 1524 1525 1526 1526 1527 1528 1529 1529 1529 1530 1530 1530 1530 1530 1529 1529 1528 1528 1527 1527 1526 1526 1526 1525 1525 1524 1524 1524 1524 1524 1524 1524 1524 1524
1519 1520 1521 1521 1522 1522 1523 1524 1524 1525 1526 1527 1527 1527 1528 1528 1528 1527 1527 1527 1526 1526 1525 1525 1525 1524 1524 1523 1523 1522 1522 1522 1522 1522 1522 1522 1522 1522
1516 1517 1517 1518 1519 1519 1520 1521 1521 1522 1523 1524 1524 1524 1525 1525 1525 1525 1524 1524 1524 1524 1523 1523 1522 1522 1522 1521 1521 1520 1520 1520 1520 1519 1519 1519 1519 1519
1513 1513 1514 1514 1515 1516 1517 1517 1518 1519 1520 1521 1521 1521 1522 1522 1522 1522 1522 1522 1521 1521 1520 1520 1520 1519 1519 1519 1518 1518 1518 1517 1517 1517 1517 1517 1517 1517
1509 1510 1510 1511 1512 1512 1513 1514 1515 1516 1517 1517 1517 1518 1518 1519 1519 1519 1519 1519 1518 1519 1518 1517 1517 1516 1516 1516 1516 1515 1515 1515 1514 1514 1514 1513 1514 1514
1505 1506 1507 1507 1508 1509 1510 1511 1512 1513 1514 1514 1514 1514 1514 1515 1516 1516 1516 1516 1515 1515 1515 1514 1514 1513 1513 1513 1513 1513 1512 1512 1512 1511 1511 1511 1511 1511
1502 1503 1503 1504 1504 1505 1506 1507 1507 1508 1510 1510 1511 1511 1511 1512 1512 1513 1513 1513 1513 1513 1512 1511 1511 1510 1510 1510 1510 1510 1509 1509 1508 1508 1508 1508 1508 1508
1498 1498 1499 1500 1501 1502 1502 1503 1504 1504 1506 1507 1507 1507 1508 1508 1509 1509 1509 1509 1509 1509 1509 1509 1508 1507 1507 1507 1507 1506 1506 1505 1505 1504 1504 1504 1504 1505
1493 1494 1495 1496 1497 1498 1498 1499 1500 1500 1502 1502 1503 1503 1504 1504 1505 1505 1505 1506 1505 1505 1505 1505 1505 1504 1503 1503 1503 1503 1502 1502 1501 1501 1501 1501 1501 1501
1489 1490 1491 1492 1493 1494 1494 1495 1496 1497 1498 1499 1499 1500 1500 1501 1501 1502 1502 1502 1502 1501 1502 1502 1501 1501 1501 1500 1499 1499 1499 1498 1498 1497 1497 1498 1498 1498
1485 1486 1487 1488 1489 1490 1491 1492 1493 1494 1494 1495 1495 1495 1496 1497 1497 1498 1498 1499 1499 1499 1499 1498 1498 1498 1497 1496 1496 1495 1495 1495 1494 1494 1494 1494 1494 1495
1481 1482 1483 1484 1485 1486 1487 1488 1488 1489 1490 1490 1491 1492 1492 1493 1494 1494 1494 1495 1495 1495 1495 1495 1495 1494 1494 1493 1492 1492 1491 1491 1491 1490 1490 1490 1490 1491
1478 1479 1480 1481 1481 1482 1483 1484 1484 1485 1486 1487 1487 1488 1489 1489 1490 1490 1490 1490 1491 1491 1491 1491 1491 1491 1490 1489 1489 1488 1488 1487 1487 1487 1487 1487 1487 1487
1474 1475 1476 1476 1477 1478 1479 1479 1480 1481 1482 1483 1484 1484 1485 1485 1486 1486 1486 1487 1487 1486 1486 1487 1487 1487 1486 1486 1485 1485 1484 1484 1484 1484 1483 1483 1483 1484
1471 1471 1472 1472 1473 1474 1475 1476 1476 1477 1478 1479 1480 1481 1481 1481 1482 1483 1483 1483 1483 1483 1483 1483 1483 1482 1482 1482 1482 1481 1481 1480 1480 1480 1480 1479 1479 1480
1467 1467 1468 1469 1470 1471 1471 1472 1473 1474 1475 1476 1476 1477 1477 1478 1478 1479 1479 1479 1479 1479 1480 1480 1479 1479 1478 1477 1478 1478 1478 1477 1476 1476 1476 1476 1476 1476
1463 1464 1465 1466 1467 1467 1468 1468 1469 1470 1471 1472 1473 1473 1474 1474 1474 1475 1475 1475 1475 1475 1475 1476 1476 1476 1475 1475 1474 1474 1475 1474 1474 1473 1473 1472 1472 1473
1460 1460 1461 1462 1463 1463 1464 1465 1466 1466 1467 1468 1469 1469 1470 1470 1470 1471 1471 1471 1471 1471 1471 1471 1472 1472 1472 1472 1471 1470 1471 1471 1471 1470 1470 1469 1468 1468
1456 1457 1457 1458 1459 1460 1460 1461 1462 1463 1463 1464 1464 1465 1466 1466 1466 1467 1467 1467 1467 1467 1467 1467 1468 1468 1468 1467 1467 1467 1467 1467 1467 1467 1467 1466 1465 1464
1452 1453 1454 1454 1455 1456 1457 1457 1458 1458 1459 1460 1460 1461 1462 1462 1462 1463 1463 1463 1463 1463 1463 1463 1463 1463 1463 1463 1463 1463 1463 1463 1463 1463 1463 1463 1463 1462